Corning, AR

12:40 PM CDT on May 26, 2017 (GMT -0500)
Corning

Weather History for K4M9 - November, 2012

Change the Weather History Date:

Sunday, November 11, 2012

  Actual Average (KARG) Record (KARG)
Temperature  
Mean Temperature 61 °F -  
Max Temperature 71 °F 56 °F 78 °F (2010)
Min Temperature 51 °F 40 °F 21 °F (2014)
Degree Days  
Heating Degree Days 4    
Growing Degree Days 11 (Base 50)    
Moisture  
Dew Point 54 °F    
Average Humidity 76    
Maximum Humidity 100    
Minimum Humidity 60    
Precipitation  
Precipitation 0.64 in - - ()
Sea Level Pressure  
Sea Level Pressure 30.00 in    
Wind  
Wind Speed 16 mph (SSW)    
Max Wind Speed 26 mph    
Max Gust Speed 33 mph    
Visibility 8 miles    
Events Rain , Thunderstorm    
Averages and records for this station are not official NWS values.
T = Trace of Precipitation, MM = Missing Value Source: NWS Daily Summary

Daily Weather History Graph

Daily Weather History Graph

Search for Another Location

Airport or City:

Trip Planner

Search our weather history database for the weather conditions in past years. The results will help you decide how hot, cold, wet, or windy it might be!

Date:

Astronomy

Nov. 11, 2012 Rise Set
Actual Time 6:36 AM CST 4:56 PM CST
Civil Twilight 6:09 AM CST 5:23 PM CST
Nautical Twilight 5:38 AM CST 5:54 PM CST
Astronomical Twilight 5:07 AM CST 6:25 PM CST
Moon 3:54 AM CST (11/11) 3:17 PM CST (11/11)
Length of Visible Light 11h 14m
Length of Day
10h 20m
Waning Crescent, 7% of the Moon is Illuminated
Nov 11
Waning Crescent
Nov 13
New
Nov 20
First Quarter
Nov 28
Full
Dec 6
Last Quarter

Hourly Weather History & Observations

Time (CST) Temp. Dew Point Humidity Pressure Visibility Wind Dir Wind Speed Gust Speed Precip Events Conditions
12:15 AM 62.6 °F 50.0 °F 63% 30.04 in 10.0 mi South 15.0 mph - N/A   Unknown
12:35 AM 62.6 °F 50.0 °F 63% 30.04 in 10.0 mi SSE 17.3 mph 23.0 mph N/A   Unknown
12:55 AM 64.4 °F 51.8 °F 64% 30.04 in 10.0 mi South 17.3 mph 21.9 mph N/A   Unknown
1:15 AM 64.4 °F 51.8 °F 64% 30.03 in 10.0 mi South 18.4 mph 25.3 mph N/A   Unknown
1:35 AM 64.4 °F 51.8 °F 64% 30.04 in 10.0 mi South 17.3 mph 29.9 mph N/A   Unknown
1:55 AM 64.4 °F 51.8 °F 64% 30.04 in 10.0 mi South 18.4 mph 28.8 mph N/A   Unknown
2:15 AM 64.4 °F 53.6 °F 68% 30.04 in 10.0 mi South 16.1 mph 28.8 mph N/A   Unknown
2:35 AM 62.6 °F 53.6 °F 72% 30.04 in 10.0 mi South 18.4 mph - N/A   Unknown
2:55 AM 62.6 °F 53.6 °F 72% 30.04 in 10.0 mi South 15.0 mph 24.2 mph N/A   Unknown
3:15 AM 62.6 °F 53.6 °F 72% 30.03 in 10.0 mi South 19.6 mph 23.0 mph N/A   Unknown
3:35 AM 62.6 °F 53.6 °F 72% 30.03 in 10.0 mi South 18.4 mph 25.3 mph N/A   Unknown
3:55 AM 62.6 °F 53.6 °F 72% 30.03 in 10.0 mi South 13.8 mph - N/A   Unknown
4:15 AM 62.6 °F 53.6 °F 72% 30.03 in 10.0 mi South 15.0 mph 21.9 mph N/A   Unknown
4:35 AM 62.6 °F 53.6 °F 72% 30.03 in 10.0 mi South 13.8 mph 18.4 mph N/A   Unknown
4:55 AM 62.6 °F 53.6 °F 72% 30.03 in 10.0 mi South 13.8 mph 17.3 mph N/A   Unknown
5:15 AM 62.6 °F 53.6 °F 72% 30.03 in 10.0 mi South 16.1 mph 21.9 mph N/A   Unknown
5:35 AM 62.6 °F 51.8 °F 68% 30.03 in 10.0 mi South 17.3 mph - N/A   Unknown
6:15 AM 62.6 °F 51.8 °F 68% 30.03 in 10.0 mi South 15.0 mph 24.2 mph N/A   Unknown
6:55 AM 62.6 °F 51.8 °F 68% 30.04 in 10.0 mi South 17.3 mph 21.9 mph N/A   Unknown
7:15 AM 62.6 °F 51.8 °F 68% 30.04 in 10.0 mi South 13.8 mph 20.7 mph N/A   Unknown
7:55 AM 62.6 °F 51.8 °F 68% 30.05 in 10.0 mi South 17.3 mph - N/A   Unknown
8:15 AM 62.6 °F 51.8 °F 68% 30.05 in 10.0 mi South 17.3 mph 21.9 mph N/A   Unknown
8:55 AM 64.4 °F 53.6 °F 68% 30.05 in 10.0 mi South 23.0 mph 29.9 mph N/A   Unknown
9:15 AM 64.4 °F 53.6 °F 68% 30.04 in 10.0 mi South 26.5 mph 33.4 mph N/A   Unknown
9:35 AM 64.4 °F 53.6 °F 68% 30.04 in 10.0 mi South 17.3 mph 29.9 mph N/A   Unknown
9:55 AM 64.4 °F 53.6 °F 68% 30.04 in 10.0 mi South 24.2 mph 29.9 mph N/A   Unknown
10:15 AM 66.2 °F 55.4 °F 68% 30.03 in 10.0 mi South 21.9 mph 29.9 mph N/A   Unknown
10:35 AM 66.2 °F 55.4 °F 68% 30.03 in 10.0 mi South 18.4 mph 27.6 mph N/A   Unknown
10:55 AM 66.2 °F 55.4 °F 68% 30.01 in 10.0 mi South 21.9 mph 31.1 mph N/A   Unknown
11:15 AM 68.0 °F 57.2 °F 68% 30.00 in 10.0 mi South 20.7 mph 28.8 mph N/A   Unknown
11:35 AM 68.0 °F 57.2 °F 68% 29.97 in 10.0 mi South 16.1 mph 28.8 mph N/A   Unknown
11:55 AM 68.0 °F 57.2 °F 68% 29.96 in 10.0 mi South 24.2 mph 31.1 mph N/A   Unknown
12:15 PM 68.0 °F 57.2 °F 68% 29.95 in 10.0 mi South 24.2 mph 31.1 mph N/A   Unknown
12:35 PM 69.8 °F 57.2 °F 64% 29.94 in 10.0 mi South 25.3 mph 32.2 mph N/A   Unknown
12:55 PM 69.8 °F 57.2 °F 64% 29.94 in 10.0 mi South 19.6 mph 26.5 mph N/A   Unknown
1:15 PM 69.8 °F 57.2 °F 64% 29.93 in 10.0 mi South 19.6 mph 28.8 mph N/A   Unknown
1:35 PM 71.6 °F 57.2 °F 60% 29.91 in 10.0 mi South 17.3 mph 25.3 mph N/A   Unknown
1:55 PM 71.6 °F 57.2 °F 60% 29.89 in 10.0 mi South 20.7 mph 25.3 mph N/A   Unknown
2:15 PM 71.6 °F 57.2 °F 60% 29.87 in 10.0 mi South 24.2 mph 29.9 mph N/A Thunderstorm Thunderstorm
2:35 PM 71.6 °F 57.2 °F 60% 29.88 in 8.0 mi South 20.7 mph 24.2 mph N/A   Unknown
2:55 PM 68.0 °F 59.0 °F 73% 29.89 in 7.0 mi South 16.1 mph 25.3 mph N/A Rain Light Rain
3:15 PM 66.2 °F 60.8 °F 83% 29.91 in 5.0 mi SSW 15.0 mph 21.9 mph N/A Rain Light Rain
3:35 PM 66.2 °F 59.0 °F 78% 29.90 in 6.0 mi South 16.1 mph 24.2 mph N/A   Haze
3:55 PM 66.2 °F 59.0 °F 78% 29.89 in 5.0 mi South 13.8 mph - N/A Thunderstorm Haze
4:15 PM 68.0 °F 59.0 °F 73% 29.88 in 10.0 mi South 15.0 mph 21.9 mph N/A Thunderstorm Unknown
4:35 PM 68.0 °F 59.0 °F 73% 29.89 in 7.0 mi South 18.4 mph 24.2 mph N/A Rain , Thunderstorm Light Rain
4:55 PM 68.0 °F 59.0 °F 73% 29.93 in 5.0 mi West 15.0 mph - N/A Rain , Thunderstorm Light Rain
5:15 PM 64.4 °F 60.8 °F 88% 29.90 in 3.0 mi SSE 17.3 mph - N/A Rain Light Rain
5:35 PM 64.4 °F 60.8 °F 88% 29.92 in 2.5 mi SW 10.4 mph - 0.05 in Rain Light Rain
5:55 PM 64.4 °F 62.6 °F 94% 29.96 in 0.8 mi SSW 13.8 mph 24.2 mph 0.07 in   Mist
6:15 PM 59.0 °F 57.2 °F 94% 29.99 in 1.5 mi West 18.4 mph 24.2 mph N/A   Mist
6:35 PM 57.2 °F 55.4 °F 94% 30.00 in 2.5 mi WNW 17.3 mph 20.7 mph 0.01 in Rain Rain
6:55 PM 55.4 °F 53.6 °F 94% 30.01 in 1.8 mi WNW 17.3 mph 24.2 mph 0.08 in Rain Rain
7:15 PM 53.6 °F 53.6 °F 100% 30.02 in 2.5 mi WNW 11.5 mph - 0.06 in Rain Light Rain
7:35 PM 53.6 °F 51.8 °F 94% 30.01 in 4.0 mi NW 8.1 mph - 0.09 in Rain Light Rain
7:55 PM 53.6 °F 51.8 °F 94% 30.02 in 3.0 mi NW 9.2 mph - 0.13 in Rain Light Rain
8:15 PM 53.6 °F 51.8 °F 94% 30.03 in 3.0 mi NW 6.9 mph - N/A   Mist
8:35 PM 53.6 °F 51.8 °F 94% 30.03 in 6.0 mi NW 4.6 mph - N/A Rain Light Rain
8:55 PM 53.6 °F 50.0 °F 88% 30.03 in 6.0 mi NW 3.5 mph - 0.02 in   Mist
9:15 PM 53.6 °F 50.0 °F 88% 30.04 in 3.0 mi WNW 6.9 mph - 0.03 in Rain Light Rain
9:35 PM 53.6 °F 50.0 °F 88% 30.04 in 5.0 mi WNW 6.9 mph - 0.04 in Rain Light Rain
9:55 PM 51.8 °F 50.0 °F 94% 30.03 in 2.5 mi WNW 5.8 mph - 0.13 in Rain Rain
10:15 PM 51.8 °F 50.0 °F 94% 30.05 in 2.5 mi WNW 8.1 mph - 0.02 in Rain Light Rain
10:35 PM 51.8 °F 50.0 °F 94% 30.06 in 2.5 mi West 5.8 mph - 0.09 in Rain Rain
11:15 PM 51.8 °F 51.8 °F 100% 30.04 in 3.0 mi WNW 5.8 mph - 0.03 in Rain Rain
11:35 PM 51.8 °F 50.0 °F 94% 30.06 in 2.5 mi West 8.1 mph - 0.07 in Rain Rain
11:55 PM 51.8 °F 50.0 °F 94% 30.09 in 2.0 mi West 8.1 mph - 0.12 in Rain Rain